Flag Weather past 2 weeks in Lugano, Switzerland

Now
54 °F

Fog.


Feels Like: 54 °F
Forecast: 43 / 67 °F
Wind: 1 mph from Northwest

Location: Lugano Airport

Current Time: Oct 30, 2014 at 6:11:39 PM

Latest Report: Oct 30, 2014 at 5:20 PM


Visibility: 3 mi

Pressure: 30.24 "Hg

Humidity: 77%

Dew point: 46 °F

Location of LuganoLocation

Historic Weather in Lugano — Graph

°F

Lugano temperature yesterday

Maximum temperature yesterday: 57 °F (at 1:20 PM)
Minimum temperature yesterday: 43 °F (at 10:20 PM)
Average temperature yesterday: 50 °F

Past Weeks' High & Low Weather Summary

 TemperatureHumidityPressure
High75 °F (Oct 17, 3:20 PM)100% (Oct 15, 11:50 PM)30.36 "Hg (Oct 15, 11:50 PM)
Low39 °F (Oct 27, 4:20 AM)25% (Oct 22, 2:20 AM)29.68 "Hg (Oct 21, 9:50 PM)
Average56 °F77%30.09 "Hg
* Reported Oct 15 5:20 PM — Oct 30 4:50 PM, Lugano, Weather by CustomWeather, © 2014

Note: Actual official high and low records may vary slightly from our data, if they occured in-between our weather recording intervals... More about our weather records

Advertising

Lugano weather history for previous 24 hours

 ConditionsComfort  
Time TempWeatherWind HumidityBarometerVisibility
4:50 PM
Oct 30
55 °FClear.1 mph72%30.21 "Hg4 mi
4:20 PM59 °FClear.3 mph63%30.21 "Hg4 mi
3:50 PM61 °FClear.3 mph55%30.21 "Hg4 mi
3:20 PM61 °FClear.5 mph59%30.21 "Hg4 mi
2:50 PM61 °FClear.6 mph59%30.21 "Hg4 mi
2:20 PM61 °FClear.5 mph55%30.21 "Hg4 mi
1:50 PM59 °FClear.5 mph55%30.21 "Hg4 mi
1:20 PM59 °FClear.5 mph63%30.21 "Hg4 mi
12:50 PM57 °FClear.3 mph63%30.24 "Hg4 mi
12:20 PM57 °FClear.3 mph63%30.24 "Hg4 mi
11:50 AM55 °FClear.3 mph67%30.24 "Hg4 mi
11:20 AM55 °FClear.3 mph67%30.24 "Hg4 mi
10:50 AM54 °FClear.1 mph67%30.24 "Hg4 mi
10:20 AM50 °FPassing clouds.2 mph76%30.24 "Hg4 mi
9:50 AM50 °FPassing clouds.2 mph76%30.24 "Hg4 mi
9:20 AM46 °FScattered clouds.5 mph87%30.24 "Hg4 mi
8:50 AM45 °FPartly sunny.3 mph93%30.24 "Hg4 mi
8:20 AM45 °FPartly sunny.1 mph93%30.24 "Hg4 mi
7:50 AM45 °FPartly sunny.3 mph87%30.24 "Hg4 mi
7:20 AM43 °FPartly sunny.2 mph93%30.21 "Hg4 mi
6:50 AM43 °FPassing clouds.1 mph93%30.21 "Hg4 mi
6:20 AM41 °FPassing clouds.3 mph100%30.21 "Hg4 mi
5:50 AM41 °FFog.3 mph100%30.21 "Hg2 mi
5:20 AM41 °FFog.1 mph100%30.21 "Hg1 mi
4:50 AM41 °FFog.2 mph100%30.21 "Hg1 mi
4:20 AM41 °FFog.2 mph100%30.18 "Hg1 mi
3:50 AM41 °FFog.2 mph100%30.18 "Hg1 mi
3:20 AM41 °FFog.1 mph100%30.18 "Hg1 mi
2:50 AM43 °FFog.2 mph93%30.18 "Hg2 mi
2:20 AM43 °FFog.2 mph93%30.21 "Hg1 mi
1:50 AM43 °FFog.2 mph100%30.18 "Hg2 mi
1:20 AM43 °FFog.1 mph100%30.18 "Hg2 mi
12:50 AM43 °FFog.1 mph100%30.18 "Hg2 mi
12:20 AM43 °FFog.2 mph100%30.18 "Hg1 mi
11:50 PM
Oct 29
43 °FFog.2 mph93%30.18 "Hg2 mi
11:20 PM43 °FFog.1 mph93%30.18 "Hg1 mi
10:50 PM43 °FFog.1 mph93%30.18 "Hg3 mi
10:20 PM43 °FFog.3 mph93%30.18 "Hg2 mi
9:50 PM45 °FClear.1 mph93%30.18 "Hg4 mi
9:20 PM45 °FPassing clouds.1 mph93%30.18 "Hg4 mi
8:50 PM45 °FPassing clouds.No wind93%30.15 "Hg4 mi
8:20 PM45 °FClear.1 mph93%30.15 "Hg4 mi
7:50 PM46 °FClear.2 mph87%30.15 "Hg4 mi
7:20 PM46 °FClear.2 mph87%30.12 "Hg4 mi
6:50 PM46 °FClear.1 mph87%30.12 "Hg4 mi
6:20 PM48 °FClear.2 mph82%30.12 "Hg4 mi
Weather by CustomWeather, © 2014

See weather overviewHow to use our weather pages